DWS9845 Weather Reports


time (UTC)temp
F
wind
direction
speed
knots
gust
knots
rain 1hr
in
rain 24hr
in
rain mn
in
humidity
%
barometer
mb
20260504192339 83 191 0.9 3.5 0.00 0.00 0.00 63 1012.1
20260504191840 82 191 1.7 6.1 0.00 0.00 0.00 64 1012.0
20260504191559 82 191 2.6 6.1 0.00 0.00 0.00 62 1012.1
20260504190840 83 189 2.6 7.8 0.00 0.00 0.00 62 1012.1
20260504190337 83 191 2.6 7.8 0.00 0.00 0.00 63 1012.1
20260504185836 83 188 2.6 4.3 0.00 0.00 0.00 61 1012.2
20260504185336 82 188 2.6 8.7 0.00 0.00 0.00 63 1012.2
20260504185102 83 188 2.6 8.7 0.00 0.00 0.00 60 1012.3
20260504184336 83 167 2.6 7.8 0.00 0.00 0.00 61 1012.3
20260504183834 82 196 2.6 5.2 0.00 0.00 0.00 62 1012.3
20260504183328 82 196 2.6 5.2 0.00 0.00 0.00 63 1012.2
20260504182812 82 195 1.7 5.2 0.00 0.00 0.00 61 1012.4
20260504182312 81 194 1.7 6.1 0.00 0.00 0.00 63 1012.4
20260504182035 81 194 1.7 6.1 0.00 0.00 0.00 63 1012.6
20260504181305 81 195 1.7 4.3 0.00 0.00 0.00 64 1012.6
20260504180806 81 193 2.6 7.0 0.00 0.00 0.00 61 1012.8
20260504180306 81 194 2.6 7.8 0.00 0.00 0.00 61 1012.8
20260504175759 81 192 2.6 7.8 0.00 0.00 0.00 62 1012.9
20260504175254 82 188 2.6 5.2 0.00 0.00 0.00 61 1013.0
20260504174754 82 203 2.6 5.2 0.00 0.00 0.00 61 1013.1
20260504174250 81 205 2.6 7.0 0.00 0.00 0.00 61 1013.0
20260504173748 82 205 2.6 7.0 0.00 0.00 0.00 62 1012.9
20260504173508 82 216 1.7 5.2 0.00 0.00 0.00 63 1013.2
20260504173011 82 213 1.7 5.2 0.00 0.00 0.00 63 1013.3
20260504172500 81 217 1.7 5.2 0.00 0.00 0.00 63 1013.5
20260504171740 80 217 1.7 9.6 0.00 0.00 0.00 64 1013.4
20260504171238 80 217 2.6 9.6 0.00 0.00 0.00 62 1013.5
20260504170736 80 190 2.6 6.1 0.00 0.00 0.00 63 1013.7
20260504170236 80 187 2.6 6.1 0.00 0.00 0.00 62 1013.6
20260504160215 77 202 1.7 5.2 0.00 0.00 0.00 69 1014.4
20260504151147 76 205 2.6 6.1 0.00 0.00 0.00 70 1014.3
20260504150647 76 204 2.6 6.1 0.00 0.00 0.00 70 1014.3
20260504150147 76 200 2.6 7.8 0.00 0.00 0.00 71 1014.4
20260504141120 73 201 0.9 3.5 0.00 0.00 0.00 75 1014.4
20260504140615 72 201 0.9 2.6 0.00 0.00 0.00 76 1014.3
20260504140116 72 201 0.9 3.5 0.00 0.00 0.00 76 1014.2
20260504130442 64 201 0.0 0.9 0.00 0.00 0.00 85 1014.1
20260504130200 63 201 0.0 0.9 0.00 0.00 0.00 86 1014.1
20260504120154 58 201 0.0 0.0 0.00 0.00 0.00 85 1013.9
20260504110710 59 201 0.0 0.0 0.00 0.00 0.00 83 1013.9
20260504100417 60 201 0.0 0.0 0.00 0.00 0.00 84 1014.2
20260504081837 60 201 0.0 0.0 0.00 0.00 0.00 79 1014.9
20260504081338 60 201 0.0 0.0 0.00 0.00 0.00 79 1014.9
20260504081027 60 201 0.0 0.0 0.00 0.00 0.00 80 1015.0
20260504080255 61 201 0.0 0.0 0.00 0.00 0.00 80 1015.2
20260504070131 61 201 0.0 0.0 0.00 0.00 0.00 79 1015.9
20260504050706 63 201 0.0 0.0 0.00 0.00 0.00 75 1016.7
20260504050152 63 201 0.0 0.0 0.00 0.00 0.00 74 1016.8
20260504045650 63 201 0.0 0.0 0.00 0.00 0.00 74 1016.7
20260504045135 64 201 0.0 0.0 0.00 0.00 0.00 73 1016.7
20260504045115 64 201 0.0 0.0 0.00 0.00 0.00 73 1016.9
20260504044058 64 201 0.0 0.0 0.00 0.00 0.00 73 1016.9
20260504043552 64 201 0.0 0.0 0.00 0.00 0.00 72 1016.9
20260504043045 64 201 0.0 0.0 0.00 0.00 0.00 71 1017.1
20260504043025 64 201 0.0 0.0 0.00 0.00 0.00 71 1017.0
20260504042026 65 201 0.0 0.9 0.00 0.00 0.00 71 1017.0
20260504041722 65 201 0.0 0.9 0.00 0.00 0.00 71 1017.0
20260504040954 65 201 0.0 0.9 0.00 0.00 0.00 71 1016.9
20260504040454 65 201 0.0 0.9 0.00 0.00 0.00 71 1016.7
20260504035953 65 201 0.0 0.9 0.00 0.00 0.00 70 1016.8
20260504035452 65 201 0.0 0.0 0.00 0.00 0.00 70 1016.8
20260504034932 65 201 0.0 0.0 0.00 0.00 0.00 70 1016.9
20260504034651 65 201 0.0 0.0 0.00 0.00 0.00 69 1017.0
20260504034125 66 201 0.0 0.0 0.00 0.00 0.00 69 1017.0
20260504033622 66 201 0.0 0.9 0.00 0.00 0.00 69 1017.0
20260504033122 66 201 0.0 0.9 0.00 0.00 0.00 69 1016.9
20260504032400 66 201 0.0 0.0 0.00 0.00 0.00 69 1016.8
20260504031900 67 201 0.0 0.9 0.00 0.00 0.00 68 1016.9
20260504031355 67 201 0.0 1.7 0.00 0.00 0.00 69 1016.9
20260504030855 67 201 0.0 1.7 0.00 0.00 0.00 69 1016.9
20260504030354 67 201 0.0 0.0 0.00 0.00 0.00 68 1016.8
20260504025850 67 201 0.0 0.9 0.00 0.00 0.00 67 1016.8
20260504025326 67 201 0.0 0.9 0.00 0.00 0.00 67 1016.7
20260504024818 68 201 0.0 0.9 0.00 0.00 0.00 67 1016.7
20260504024310 68 201 0.0 1.7 0.00 0.00 0.00 66 1016.8
20260504023800 68 201 0.0 1.7 0.00 0.00 0.00 66 1016.7
20260504023254 68 201 0.0 1.7 0.00 0.00 0.00 66 1016.7
20260504023242 68 201 0.0 1.7 0.00 0.00 0.00 66 1016.7
20260504022513 69 201 0.0 1.7 0.00 0.00 0.00 65 1016.6
20260504021752 69 201 0.0 1.7 0.00 0.00 0.00 64 1016.6
20260504021221 69 201 0.0 1.7 0.00 0.00 0.00 64 1016.6
20260504020708 69 201 0.0 1.7 0.00 0.00 0.00 64 1016.5
20260504020205 69 201 0.0 2.6 0.00 0.00 0.00 63 1016.5
20260504015906 70 201 0.0 2.6 0.00 0.00 0.00 63 1016.5
20260504015620 70 201 0.9 2.6 0.00 0.00 0.00 63 1016.5
20260504014633 70 201 0.0 2.6 0.00 0.00 0.00 63 1016.6
20260504014112 70 201 0.0 1.7 0.00 0.00 0.00 62 1016.5
20260504013611 70 201 0.0 2.6 0.00 0.00 0.00 61 1016.5
20260504013103 71 201 0.9 3.5 0.00 0.00 0.00 61 1016.5
20260504012603 71 201 0.9 4.3 0.00 0.00 0.00 60 1016.6
20260504012328 71 201 0.9 4.3 0.00 0.00 0.00 60 1016.5
20260504011600 71 201 0.9 2.6 0.00 0.00 0.00 60 1016.5
20260504011100 72 201 0.0 2.6 0.00 0.00 0.00 59 1016.4
20260504010556 72 201 0.0 2.6 0.00 0.00 0.00 59 1016.4
20260504010052 72 201 0.9 2.6 0.00 0.00 0.00 58 1016.3
20260504005552 72 201 0.9 0.9 0.00 0.00 0.00 58 1016.5
20260504005050 73 201 0.9 2.6 0.00 0.00 0.00 56 1016.6
20260504004800 73 201 0.9 2.6 0.00 0.00 0.00 56 1016.5
20260504004038 73 201 0.9 3.5 0.00 0.00 0.00 55 1016.5
20260504003507 73 201 0.9 3.5 0.00 0.00 0.00 55 1016.4
20260504003007 74 201 0.9 4.3 0.00 0.00 0.00 54 1016.5
20260504002458 74 201 0.9 4.3 0.00 0.00 0.00 53 1016.5
20260504002000 74 201 0.9 3.5 0.00 0.00 0.00 52 1016.4
20260504001459 74 201 0.9 3.5 0.00 0.00 0.00 52 1016.4
20260504001222 75 201 1.7 4.3 0.00 0.00 0.00 51 1016.4
20260504000447 75 201 1.7 4.3 0.00 0.00 0.00 51 1016.5
20260503235948 75 201 1.7 5.2 0.00 0.00 0.00 51 1016.5
20260503235446 76 201 1.7 5.2 0.00 0.00 0.00 51 1016.6
20260503234945 76 202 1.7 5.2 0.00 0.00 0.00 50 1016.5
20260503234445 76 201 1.7 7.8 0.00 0.00 0.00 50 1016.4
20260503233946 76 203 1.7 7.8 0.00 0.00 0.00 49 1016.5
20260503233440 77 196 1.7 6.1 0.00 0.00 0.00 48 1016.7
20260503232938 77 197 1.7 5.2 0.00 0.00 0.00 48 1016.8
20260503232432 77 203 1.7 4.3 0.00 0.00 0.00 48 1016.8
20260503231922 77 204 1.7 4.3 0.00 0.00 0.00 49 1016.8
20260503231420 77 199 1.7 5.2 0.00 0.00 0.00 48 1016.8
20260503230920 78 199 1.7 5.2 0.00 0.00 0.00 47 1016.7
20260503230406 78 210 1.7 4.3 0.00 0.00 0.00 47 1016.8
20260503225908 78 210 1.7 5.2 0.00 0.00 0.00 48 1016.8
20260503225609 78 211 1.7 5.2 0.00 0.00 0.00 47 1016.9
20260503224839 78 211 1.7 7.8 0.00 0.00 0.00 47 1017.0
20260503224334 78 211 1.7 7.8 0.00 0.00 0.00 48 1017.0
20260503223830 78 186 1.7 4.3 0.00 0.00 0.00 48 1016.9
20260503223316 78 187 0.9 5.2 0.00 0.00 0.00 48 1017.2
20260503222813 78 187 1.7 5.2 0.00 0.00 0.00 46 1017.1
20260503222314 79 186 0.9 4.3 0.00 0.00 0.00 45 1017.3
20260503222300 79 186 1.7 5.2 0.00 0.00 0.00 46 1017.3
20260503221534 79 186 1.7 5.2 0.00 0.00 0.00 46 1017.3
20260503220810 79 184 1.7 4.3 0.00 0.00 0.00 46 1017.3
20260503220308 79 188 1.7 6.1 0.00 0.00 0.00 46 1017.3
20260503215802 79 188 2.6 6.1 0.00 0.00 0.00 45 1017.2
20260503215259 79 187 1.7 5.2 0.00 0.00 0.00 45 1017.2
20260503214800 80 184 1.7 5.2 0.00 0.00 0.00 45 1017.2
20260503214300 80 184 0.9 5.2 0.00 0.00 0.00 46 1017.4
20260503213758 80 184 1.7 4.3 0.00 0.00 0.00 46 1017.5
20260503213256 80 184 1.7 4.3 0.00 0.00 0.00 45 1017.6
20260503212755 79 184 1.7 6.1 0.00 0.00 0.00 46 1017.5
20260503212256 79 184 1.7 7.0 0.00 0.00 0.00 45 1017.7
20260503211755 80 183 1.7 7.0 0.00 0.00 0.00 45 1017.8
20260503211256 81 182 1.7 6.1 0.00 0.00 0.00 43 1017.7
20260503211018 81 117 1.7 6.1 0.00 0.00 0.00 40 1017.8
20260503210510 81 102 1.7 7.0 0.00 0.00 0.00 42 1017.9
20260503205741 81 99 0.9 7.0 0.00 0.00 0.00 42 1017.9
20260503205242 81 82 0.9 4.3 0.00 0.00 0.00 41 1018.0
20260503204739 81 81 1.7 6.1 0.00 0.00 0.00 39 1018.1
20260503204240 81 77 1.7 6.1 0.00 0.00 0.00 39 1018.2
20260503203954 81 154 1.7 7.0 0.00 0.00 0.00 40 1018.2
20260503203236 81 146 1.7 7.0 0.00 0.00 0.00 39 1018.2
20260503202732 82 90 1.7 5.2 0.00 0.00 0.00 37 1018.3
20260503202230 82 134 0.9 4.3 0.00 0.00 0.00 39 1018.5
20260503201728 81 134 1.7 7.0 0.00 0.00 0.00 39 1018.6
20260503201225 81 158 1.7 7.0 0.00 0.00 0.00 37 1018.7
20260503200942 81 101 0.9 5.2 0.00 0.00 0.00 40 1018.8
20260503200218 81 100 1.7 6.1 0.00 0.00 0.00 39 1018.8
20260503195717 81 100 1.7 6.1 0.00 0.00 0.00 39 1018.9
20260503195216 81 117 2.6 7.8 0.00 0.00 0.00 37 1019.0
20260503194713 81 184 2.6 7.8 0.00 0.00 0.00 37 1019.0
20260503194211 81 198 1.7 7.0 0.00 0.00 0.00 37 1019.0
20260503193710 81 111 1.7 5.2 0.00 0.00 0.00 40 1019.1
20260503193210 81 89 0.9 5.2 0.00 0.00 0.00 37 1019.1
20260503192710 81 90 0.9 4.3 0.00 0.00 0.00 41 1019.2